Regional Weather Roundup
Issued by NWS Newport/Morehead, NC

Current Version | Previous Version | Text Only | Print | Product List | Glossary On
Versions: 1 2 3 4 5 6 7 8 9 10 11 12 13 14 15 16 17 18 19 20 21 22 23 24 25 26 27 28 29 30 31 32 33 34 35 36 37 38 39 40 41 42 43 44 45 46 47 48 49 50
000
ASUS42 KMHX 290125
RWRMHX
WEATHER ROUNDUP FOR EASTERN NORTH CAROLINA
NATIONAL WEATHER SERVICE NEWPORT/MOREHEAD CITY NC
900 PM EDT THU APR 28 2016

NOTE: "FAIR" INDICATES FEW OR NO CLOUDS BELOW 12,000 FEET
WITH NO SIGNIFICANT WEATHER AND/OR OBSTRUCTIONS TO VISIBILITY

NCZ015>017-031-032-045>047-102-103-290200-
NORTH COAST

CITY           SKY/WX    TMP DP  RH WIND       PRES   REMARKS
EDENTON        CLOUDY    67  67  97 E3        29.91R
ELIZABETH CITY FOG       60  60 100 NE9       29.90S VSB 1
KITTY HAWK     CLOUDY    60  59  95 N5        29.89R
MANTEO         NOT AVBL

$$

NCZ045>047-081-094-103-104-290200-
CENTRAL COAST

CITY           SKY/WX    TMP DP  RH WIND       PRES   REMARKS
FRISCO         CLOUDY    70  67  90 SW10      29.90S
SWANQUARTER    NOT AVBL

$$

NCZ095-097-098-100-101-290200-
SOUTHERN COAST

CITY           SKY/WX    TMP DP  RH WIND       PRES   REMARKS
BEAUFORT       CLOUDY    70  68  93 SW14      29.91S
CEDAR ISLAND   NOT AVBL
JACKSONVILLE   CLOUDY    72  64  76 S7        29.88F
PINEY ISLAND   NOT AVBL
WILMINGTON     CLEAR     72  65  78 S12       29.91S


$$

NCZ011>013-027>030-043-044-078>080-089-090>093-098-290200-
COASTAL PLAIN

CITY           SKY/WX    TMP DP  RH WIND       PRES   REMARKS
AHOSKIE        RAIN      66  64  95 SE7       29.90S
CLINTON        PTCLDY    75  66  73 S6        29.88S
ELIZABETHTOWN  CLEAR     74  65  74 S7        29.88S
GOLDSBORO      MOCLDY    72  64  78 S7        29.84S
GREENVILLE     LGT RAIN  73  70  88 N5        29.89R
HAVELOCK       CLOUDY    71  66  84 S14       29.91S
KENANSVILLE    PTCLDY    74  62  65 S5        29.89S
KINSTON        CLOUDY    77  64  65 S10       29.88R
NEW BERN       CLOUDY    73  62  68 S10       29.89S
RICHLANDS      CLOUDY    74  64  71 SW10      29.90R
ROCKY MOUNT    TSTM      67  65  93 NW10G24   29.94R VSB 3/4
WASHINGTON     CLOUDY    74  66  75 SE5       29.87S
WHITEVILLE     PTCLDY    73  65  76 SE3       29.89S

$$

AMZ130-135-150-152-154-156-158-170-250-252-270-ANZ085-086-088-633-658-670-290200-
MARINE OBSERVATIONS

STATION/POSITION TIME  TEMP    WIND        PRES    WAVE   SWELL
                       AIR SEA DIR/SP/G            HT/PER HT/PER
                 (UTC) (F)     (DEG/KT/KT) (MB)    (FT/S) (FT/S)
CHESAPEAKE LIGHT 0100   54      40/ 13/ 15 1014.3
64 E VA BEACH    0050   55 53   40/  6/  8 1012.4    3/ 6   3/ 6
DUCK             0100   57 67              1011.8
2 E DUCK         0041      58                N/A     2/11
OREGON INLET     0000   70 69              1011.4
13E OREGON INLT  0100      60                N/A     3/ 6   3/ 6
HATTERAS CG      0100   70 70              1012.1
DIAMOND BUOY     0050   73 72  220/ 14/ 17 1012.6    4/ 6   2/10
CAPE LOOKOUT     0100   69     200/ 11/ 13 1012.7
BEAUFORT LAB     0100   70 69              1011.9
30 SE NEW RVR IN 0025      67                N/A     4/ 5
27 SE WRIGHTSVLE 0108   71 69  220/ 10/ 14 1016.2
5 SE WRIGHTSVLE  0008   69 67  220/ 10/ 14 1013.9
225 S CAPE HAT   0050   71 71  170/ 10/ 12 1016.6    2/10   2/10
41 SE CHARLESTON 0050   73 71  200/ 14/ 16 1013.1    3/ 5   2/ 9

$$




USA.gov is the U.S. government's official web portal to all federal, state and local government web resources and services.